Regional Weather Roundup
Issued by NWS

Home | Current Version | Previous Version | Text Only | Print | Product List | Glossary On
Versions: 1 2 3 4 5 6 7 8 9 10 11 12 13 14 15 16 17 18 19 20 21 22 23 24 25 26 27 28 29 30 31 32 33 34 35 36 37 38 39 40 41 42 43 44 45 46 47 48 49 50
000
ASUS44 KFWD 200910
RWRTX
NORTH TEXAS HOURLY WEATHER ROUNDUP
NATIONAL WEATHER SERVICE FORT WORTH TX
300 AM CST SAT JAN 20 2018

NOTE: "FAIR" INDICATES FEW OR NO CLOUDS BELOW 12,000 FEET WITH NO
SIGNIFICANT WEATHER AND/OR OBSTRUCTIONS TO VISIBILITY.

TXZ118-119-201000-
DALLAS/FORT WORTH METROPLEX

CITY           SKY/WX    TMP DP  RH WIND       PRES   REMARKS
DFW AIRPORT    DRIZZLE   56  53  90 S14       29.98F FOG
DALLAS LOVE    DRIZZLE   53  52  96 S10       30.00F FOG
FTW MEACHAM    CLOUDY    54  52  93 S17G25    29.99F
DAL-EXECUTIVE  CLOUDY    56  54  93 S13G23    29.99F FOG
FTW-ALLIANCE   CLOUDY    53  52  96 S10G18    29.98F
FTW-NAS-JRB    CLOUDY    53  51  93 S14       29.99F
FTW-SPINKS     CLOUDY    54  52  94 S12G18    30.01F
ARLINGTON      CLOUDY    54  54 100 S13       30.00F
GRAND PRAIRIE  CLOUDY    54  54 100 S15       30.02S
ADDISON        DRIZZLE   52  52  98 S10       30.02F
MESQUITE       CLOUDY    52  51  96 S8        30.02F
LANCASTER      CLOUDY    54  53  97 S9        30.03S FOG
$$

TXZ091>094-102>105-117-120-121-131>134-201000-
NORTH CENTRAL TEXAS

CITY           SKY/WX    TMP DP  RH WIND       PRES   REMARKS
SHRMAN/DENISON CLOUDY    50  49  97 SE9       30.00S FOG
GAINESVILLE    CLOUDY    51  49  94 S15       29.98F FOG
BOWIE          CLOUDY    51  49  93 S13G23    29.93F
BRIDGEPORT     CLOUDY    52  50  93 S20       29.97F
DECATUR        CLOUDY    51  49  95 S18G26    29.95F FOG
DENTON         CLOUDY    52  52 100 S14       29.98F FOG
MCKINNEY       CLOUDY    50  50 100 S8        30.00F FOG
BONHAM         DRIZZLE   49  48  97 SE6       30.01F FOG
GREENVILLE     CLOUDY    57  54  88 S13G20    30.03S
ROCKWALL       DRIZZLE   52  52 100 S6        30.02F
TERRELL        CLOUDY    53  51  93 S12       30.03S FOG
WAXAHACHIE     CLOUDY    54  54 100 S17G23    30.02F FOG
CLEBURNE       CLOUDY    52  52 100 S16G23    30.01S FOG
GRANBURY       CLOUDY    54  50  87 S15       30.00F
$$

TXZ083>090-098>101-113>116-127>130-139>142-154-155-201000-
WESTERN NORTH TEXAS

CITY           SKY/WX    TMP DP  RH WIND       PRES   REMARKS
WICHITA FALLS  FAIR      48  45  89 S15       29.89S
WF-KICKAPOO    FAIR      48  46  93 S9        29.92F
VERNON         FAIR      47  43  84 S15       29.86F
ABILENE        FAIR      45  43  93 S15       29.93S WCI  38
ABILENE-DYESS  FAIR      44  43  95 SE10      29.93S WCI  39
GRAHAM           N/A     51  48  88 S9        29.92F
BRECKENRIDGE   FAIR      51  46  82 S12G20    29.93F
CISCO          FAIR      48  46  93 S16       29.95S
EASTLAND       FAIR      48  46  90 S10       29.96S
RANGER         CLOUDY    50  46  87 S9G17     29.96S
MINERAL WELLS  CLOUDY    52  49  89 S14       29.96F
STEPHENVILLE   CLOUDY    51  49  93 S13       30.00S
COMANCHE       MOCLDY    50  48  93 S8G16     29.99S
BROWNWOOD      CLOUDY    48  46  93 S7        29.98S
COLEMAN        FAIR      46  43  91 SW7       29.97F
$$

TXZ143>147-156>162-174-175-201000-
CENTRAL TEXAS

CITY           SKY/WX    TMP DP  RH WIND       PRES   REMARKS
WACO           CLOUDY    55  53  93 S13       30.03S
WACO-MCGREGOR  CLOUDY    54  53  97 S16       30.03S
CORSICANA      CLOUDY    55  55 100 S13       30.05S FOG
MEXIA          CLOUDY    55  54  97 S12G17    30.04F
HEARNE         CLOUDY    54  54 100 SE5       30.08S FOG
CAMERON        CLOUDY    57  55  92 S12G20    30.05F
TEMPLE         CLOUDY    54  54 100 S14       30.04S FOG
KILLEEN        CLOUDY    52  51  94 S17G23    30.01F
KILLEEN-SKYLRK CLOUDY    54  51  90 S15       30.03S
FORT HOOD      CLOUDY    52  51  97 S15G22    29.99S
GATESVILLE     CLOUDY    52  52 100 S9G17     30.04S
HAMILTON       CLOUDY    52  52 100 S21       30.00F
LAMPASAS       CLOUDY    51  48  90 S9G17     30.01S
$$

TXZ095>097-106>112-122>126-135>138-148>153-164>167-201000-
EAST TEXAS

CITY           SKY/WX    TMP DP  RH WIND       PRES   REMARKS
PARIS          CLOUDY    52  49  89 S12       30.05S
SULPHUR SPRNGS CLOUDY    55  52  90 S9        30.06S
MOUNT PLEASANT CLOUDY    51  45  80 SE6       30.08F
GILMER         CLOUDY    51  47  86 SE6       30.07F
MINEOLA        CLOUDY    55  52  88 S8        30.05S
TYLER          CLOUDY    54  52  93 S13       30.06F
LONGVIEW       CLOUDY    52  49  89 S10       30.08F
MARSHALL       CLOUDY    50  41  71 S3        30.12F
ATHENS         CLOUDY    52  52 100 S10G24    30.05S
PALESTINE      CLOUDY    53  52  95 SE7       30.09S FOG
JACKSONVILLE   CLOUDY    52  51  97 S8        30.10S
CENTER         RAIN      49  43  78 SE5       30.13S
NACOGDOCHES    CLOUDY    49  45  86 SE7       30.12F
LUFKIN         CLOUDY    50  47  89 SE6       30.11F
$$

SUPPLEMENTAL OBSERVATIONS (NWS FORT WORTH AREA)

CITY           SKY/WX    TMP DP  RH WIND       PRES   REMARKS
CADDO GRASSLND   N/A     48  45  87 S5          N/A
PAT MAYSE LAKE   N/A     50  48  93 SE6         N/A
GREENVILLE       N/A     54  50  87 S7          N/A
LBJ GRASSLAND    N/A     52  48  87 S13G21      N/A
POSSUM KINGDOM   N/A     50  45  81 S5G17       N/A
GRANBURY         N/A     54  50  87 S15         N/A
MCGREGOR         N/A     54  50  87 S16G28      N/A
TEMPLE           N/A     54  52  94 S12G20      N/A
$$

SUPPLEMENTAL OBSERVATIONS (NWS NORMAN AREA)

CITY           SKY/WX    TMP DP  RH WIND       PRES   REMARKS
MILLERS CREEK    N/A     45  41  87 S8          N/A
$$

SUPPLEMENTAL OBSERVATIONS (NWS SAN ANGELO AREA)

CITY           SKY/WX    TMP DP  RH WIND       PRES   REMARKS
HAMBY            N/A     45  41  87 S15         N/A  WCI  38
$$

SUPPLEMENTAL OBSERVATIONS (NWS SHREVEPORT AREA)

CITY           SKY/WX    TMP DP  RH WIND       PRES   REMARKS
CLARKSVILLE      N/A     48  39  71 SE6         N/A
TEXARKANA        N/A     46  34  61 SE1         N/A
LINDEN           N/A     52  43  71 S5          N/A
GILMER           N/A     54  50  87 S8          N/A
HENDERSON        N/A     52  46  82 S7          N/A
LUFKIN           N/A     52  48  87 MISG        N/A
N SABINE NF      N/A     50  41  71 MISG        N/A
S SABINE NF      N/A     46  36  66 SW2         N/A
$$

SUPPLEMENTAL OBSERVATIONS ARE A COLLECTION OF AUTOMATED INSTRUMENTS
THAT ARE MAINTAINED BY A VARIETY OF FEDERAL AND STATE AGENCIES.
CERTAIN ELEMENTS...SUCH AS HUMIDITY VALUES AND SUSTAINED WIND
SPEEDS...MAY BE APPROXIMATED.





USA.gov is the U.S. government's official web portal to all federal, state and local government web resources and services.